Simultaneous Nadir Overpasses (SNOs) Predictions

Prediction of SNOs between AQUA and GOES-15 Satellite Orbit:

Table of predicted SNOs for the next 14.0 days since TLE Epoch: 8/2/2013
Index Date Time (AQUA) AQUA Lat,Lon GOES-15 Lat,Lon Distance(km) Time Diff (sec)
1 08/03/2013 22:29:19 0.69,-133.51 0.29,-135.33 207.15 80
2 08/04/2013 10:50:33 0.43,-138.66 -0.30,-135.34 378.34 80
3 08/06/2013 10:38:22 -0.18,-135.70 -0.30,-135.31 45.52 80
4 08/08/2013 10:26:11 -0.81,-132.75 -0.30,-135.28 287.18 80
5 08/08/2013 22:47:36 -0.27,-137.95 0.31,-135.26 306.36 80
6 08/10/2013 22:35:25 0.37,-135.00 0.31,-135.22 25.69 80
7 08/12/2013 22:23:13 0.96,-132.04 0.31,-135.18 356.89 80
8 08/13/2013 10:44:29 0.09,-137.20 -0.31,-135.18 228.93 80
9 08/15/2013 10:32:17 -0.52,-134.24 -0.32,-135.13 101.16 80
10 08/15/2013 22:53:41 -0.61,-139.43 0.32,-135.09 493.25 80




NCC Satellite Simultaneous Nadir Overpasses (SNOs) Prediction Service
